FW7196 Weather Reports


time (UTC)temp
F
wind
direction
speed
knots
gust
knots
rain 1hr
in
rain 24hr
in
rain mn
in
humidity
%
barometer
mb
20260506044544 57 0 0.0 1.7 0.00 0.10 0.00 91 1008.2
20260506043035 57 0 0.0 1.7 0.00 0.10 0.00 91 1008.0
20260506041536 57 0 0.0 0.9 0.00 0.10 0.00 92 1008.1
20260506040036 57 0 0.0 0.0 0.00 0.10 0.00 93 1008.1
20260506034538 57 0 0.0 1.7 0.00 0.10 0.10 93 1008.0
20260506033036 57 66 0.0 1.7 0.00 0.10 0.10 93 1008.0
20260506031538 57 0 0.0 0.0 0.00 0.10 0.10 93 1008.0
20260506030055 57 0 0.0 0.0 0.00 0.10 0.10 93 1008.0
20260506024547 56 0 0.0 0.0 0.00 0.10 0.10 93 1008.0
20260506023039 56 0 0.0 0.0 0.00 0.10 0.10 93 1007.9
20260506021537 56 0 0.0 0.9 0.00 0.10 0.10 93 1007.9
20260506020035 56 0 0.0 0.0 0.00 0.10 0.10 93 1007.7
20260506014543 56 0 0.0 1.7 0.00 0.10 0.10 92 1007.5
20260506013036 57 0 0.0 0.0 0.00 0.10 0.10 92 1007.4
20260506011538 58 0 0.0 1.7 0.00 0.10 0.10 90 1007.5
20260506010045 59 0 0.0 1.7 0.00 0.10 0.10 90 1007.5
20260506004546 60 0 0.0 2.6 0.00 0.10 0.10 87 1007.2
20260506003040 60 0 0.9 5.2 0.00 0.10 0.10 84 1007.1
20260506001543 59 111 0.9 1.7 0.00 0.10 0.10 87 1007.3
20260506000038 59 0 0.0 0.0 0.00 0.10 0.10 90 1007.1
20260505234536 59 0 0.0 0.0 0.00 0.10 0.10 92 1007.1
20260505233035 59 0 0.0 0.0 0.00 0.10 0.10 92 1007.1
20260505231535 59 0 0.0 0.0 0.00 0.10 0.10 91 1006.7
20260505230046 60 0 0.0 0.0 0.00 0.10 0.10 89 1006.4
20260505224537 60 0 0.0 3.5 0.00 0.10 0.10 86 1006.0
20260505223036 60 126 1.7 4.3 0.00 0.10 0.10 85 1006.5
20260505221536 60 68 0.0 3.5 0.03 0.10 0.10 88 1006.0
20260505220041 60 0 0.0 3.5 0.05 0.10 0.10 90 1005.6
20260505214536 60 0 0.0 0.9 0.10 0.10 0.10 91 1005.1
20260505213043 60 0 0.0 7.8 0.10 0.10 0.10 86 1005.2
20260505211541 61 10 0.9 10.4 0.07 0.07 0.07 81 1006.3
20260505210036 66 109 1.7 12.2 0.04 0.04 0.04 73 1006.2
20260505204537 77 335 2.6 13.0 0.00 0.00 0.00 36 1004.2
20260505203041 78 141 1.7 7.0 0.00 0.00 0.00 35 1002.6
20260505201537 78 147 1.7 13.9 0.00 0.00 0.00 34 1002.7
20260505200038 79 215 2.6 15.6 0.00 0.00 0.00 32 1002.6
20260505194535 80 49 2.6 10.4 0.00 0.00 0.00 32 1002.6
20260505193052 79 189 3.5 13.9 0.00 0.00 0.00 32 1002.7
20260505191540 80 107 2.6 11.3 0.00 0.00 0.00 31 1002.9
20260505190042 80 162 1.7 10.4 0.00 0.00 0.00 32 1003.2
20260505184535 78 198 2.6 10.4 0.00 0.00 0.00 33 1003.2
20260505183036 78 46 1.7 9.6 0.00 0.00 0.00 33 1003.4
20260505181536 79 101 0.9 13.0 0.00 0.00 0.00 33 1003.7
20260505180040 78 164 3.5 8.7 0.00 0.00 0.00 34 1003.9
20260505174538 78 94 2.6 13.0 0.00 0.00 0.00 36 1004.4
20260505173035 77 159 2.6 11.3 0.00 0.00 0.00 34 1004.4
20260505171540 79 60 1.7 7.8 0.00 0.00 0.00 38 1004.5
20260505170038 77 72 2.6 9.6 0.00 0.00 0.00 40 1004.7
20260505164540 77 140 2.6 8.7 0.00 0.00 0.00 41 1004.9
20260505163041 76 99 3.5 11.3 0.00 0.00 0.00 42 1005.3
20260505161536 75 159 1.7 8.7 0.00 0.00 0.00 44 1005.6
20260505153043 72 171 1.7 7.8 0.00 0.00 0.00 49 1006.7
20260505151538 70 37 1.7 8.7 0.00 0.00 0.00 52 1007.1
20260505124540 56 147 2.6 7.8 0.00 0.00 0.00 69 1007.0
20260505123048 55 105 0.9 7.0 0.00 0.00 0.00 68 1007.0
20260505121537 55 153 1.7 8.7 0.00 0.00 0.00 68 1007.2
20260505120043 55 148 0.9 9.6 0.00 0.00 0.00 69 1007.3
20260505114534 54 107 2.6 7.8 0.00 0.00 0.00 70 1007.5
20260505113034 53 133 2.6 7.8 0.00 0.00 0.00 72 1007.5
20260505111536 52 115 0.9 5.2 0.00 0.00 0.00 73 1007.4
20260505101536 50 99 0.9 4.3 0.00 0.00 0.00 75 1006.9
20260505100038 49 74 0.9 2.6 0.00 0.00 0.00 75 1006.9
20260505095208 50 109 0.0 0.0 0.00 0.00 0.00 75 1006.9
20260505094539 50 0 0.0 1.7 0.00 0.00 0.00 75 1006.9
20260505093036 50 0 0.9 1.7 0.00 0.00 0.00 74 1006.9
20260505091538 50 0 0.0 3.5 0.00 0.00 0.00 73 1007.1
20260505090034 50 0 0.0 6.1 0.00 0.00 0.00 73 1007.3
20260505084555 51 0 0.0 1.7 0.00 0.00 0.00 72 1007.2
20260505083057 51 119 0.9 2.6 0.00 0.00 0.00 72 1007.1
20260505081553 51 0 0.0 1.7 0.00 0.00 0.00 71 1007.3
20260505080044 52 0 0.0 2.6 0.00 0.00 0.00 70 1007.2
20260505074535 52 0 0.0 1.7 0.00 0.00 0.00 68 1007.2
20260505073048 53 56 0.0 1.7 0.00 0.00 0.00 67 1007.2
20260505071545 52 159 0.9 2.6 0.00 0.00 0.00 67 1007.5
20260505070043 52 114 1.7 10.4 0.00 0.00 0.00 68 1007.3
20260505064536 52 120 1.7 4.3 0.00 0.00 0.00 68 1007.4
20260505063040 53 144 0.9 3.5 0.00 0.00 0.00 67 1007.5
20260505061535 53 122 1.7 5.2 0.00 0.00 0.00 67 1007.6
20260505060053 53 98 0.9 5.2 0.00 0.00 0.00 67 1007.7
20260505054537 53 0 0.9 3.5 0.00 0.00 0.00 67 1007.5
20260505053038 53 124 0.9 4.3 0.00 0.00 0.00 66 1007.6
20260505051535 53 157 0.9 4.3 0.00 0.00 0.00 66 1007.8